This is the latest recevied weather packets stored in our database for station/object M0UPS-13. If no packets are shown the sender has not sent any weather packets the latest 10 day(s).
| Time | Temp. | Humidity | Pressure | Rain* | Wind** | Luminosity | Snow |
|---|---|---|---|---|---|---|---|
| 1777989902 | 16.67° C | 50% | 1012 hPa | 0 mm | - | 80 W/m² | - |
| 1777989602 | 16.67° C | 49% | 1012.1 hPa | 0 mm | - | 94 W/m² | - |
| 1777989302 | 16.67° C | 50% | 1012 hPa | 0 mm | - | 121 W/m² | - |
| 1777989002 | 17.22° C | 47% | 1011.9 hPa | 0 mm | - | 165 W/m² | - |
| 1777988702 | 17.22° C | 45% | 1012 hPa | 0 mm | - | 192 W/m² | - |
| 1777988403 | 17.22° C | 46% | 1012.2 hPa | 0 mm | - | 251 W/m² | - |
| 1777988103 | 17.22° C | 46% | 1012.3 hPa | 0 mm | - | 281 W/m² | - |
| 1777987803 | 17.78° C | 45% | 1012.2 hPa | 0 mm | - | 313 W/m² | - |
| 1777987502 | 17.78° C | 45% | 1012.1 hPa | 0 mm | - | 358 W/m² | - |
| 1777987203 | 17.78° C | 44% | 1012.1 hPa | 0 mm | - | 372 W/m² | - |
| 1777986902 | 17.78° C | 46% | 1012 hPa | 0 mm | - | 518 W/m² | - |
| 1777986602 | 17.78° C | 47% | 1012.3 hPa | 0 mm | - | 433 W/m² | - |
| 1777986302 | 17.22° C | 47% | 1012.3 hPa | 0 mm | - | 419 W/m² | - |
| 1777986002 | 17.22° C | 47% | 1012.3 hPa | 0 mm | - | 378 W/m² | - |
| 1777985702 | 17.22° C | 47% | 1012.3 hPa | 0 mm | - | 336 W/m² | - |
| 1777985402 | 17.22° C | 48% | 1012.2 hPa | 0 mm | - | 297 W/m² | - |
| 1777985102 | 17.78° C | 49% | 1012.3 hPa | 0 mm | - | 257 W/m² | - |
| 1777984802 | 17.22° C | 52% | 1012.4 hPa | 0 mm | - | 293 W/m² | - |
| 1777984502 | 17.78° C | 50% | 1012.2 hPa | 0 mm | - | 283 W/m² | - |
| 1777984202 | 17.78° C | 50% | 1012.3 hPa | 0 mm | - | 257 W/m² | - |
| 1777983903 | 17.22° C | 50% | 1012.3 hPa | 0 mm | - | 296 W/m² | - |
| 1777983603 | 16.67° C | 50% | 1012.2 hPa | 0 mm | - | 262 W/m² | - |
| 1777983302 | 16.67° C | 52% | 1012.3 hPa | 0 mm | - | 305 W/m² | - |
| 1777983002 | 16.67° C | 49% | 1012.3 hPa | 0 mm | - | 281 W/m² | - |
| 1777982702 | 17.78° C | 47% | 1012.5 hPa | 0 mm | - | 285 W/m² | - |
* Rain latest hour (hover to see other rain measurements)
** Current wind speed in m/s (hover to see current wind gust speed)